EW7237 Weather Reports


time (UTC)temp
F
wind
direction
speed
knots
gust
knots
rain 1hr
in
rain 24hr
in
rain mn
in
humidity
%
barometer
mb
20260903041522 50 115 0.0 0.0 0.00 0.00 0.00 93 1020.8
20260903040036 51 115 0.0 0.0 0.00 0.00 0.00 93 1020.9
20260903034607 51 115 0.0 0.0 0.00 0.00 0.00 92 1020.8
20260903033017 52 115 0.0 0.0 0.00 0.00 0.00 92 1020.9
20260903031539 52 115 0.0 0.0 0.00 0.00 0.00 92 1020.8
20260903030058 52 115 0.0 0.0 0.00 0.00 0.00 91 1020.9
20260903024517 52 115 0.0 0.0 0.00 0.00 0.00 92 1020.9
20260903023054 52 115 0.0 0.0 0.00 0.00 0.00 92 1020.9
20260903021520 53 115 0.0 0.0 0.00 0.00 0.00 91 1020.9
20260903020058 53 115 0.0 0.0 0.00 0.00 0.00 90 1020.9
20260903014520 53 115 0.0 0.0 0.00 0.00 0.00 90 1020.9
20260903013038 53 115 0.0 0.0 0.00 0.00 0.00 88 1020.8
20260903011556 54 115 0.0 0.0 0.00 0.00 0.00 87 1020.8
20260903010020 55 115 0.0 0.0 0.00 0.00 0.00 86 1020.7
20260903004546 56 115 0.0 0.0 0.00 0.00 0.00 85 1020.7
20260903003105 57 115 0.0 0.0 0.00 0.00 0.00 83 1020.7
20260903001520 58 115 0.0 0.0 0.00 0.00 0.00 81 1020.6
20260903000005 58 115 0.0 0.0 0.00 0.00 0.00 81 1020.7
20260902234529 57 115 0.0 0.0 0.00 0.00 0.00 83 1020.7
20260902233049 56 115 0.0 0.0 0.00 0.00 0.00 84 1020.6
20260902231511 56 115 0.0 0.0 0.00 0.00 0.00 84 1020.6
20260902230033 56 115 0.0 0.0 0.00 0.00 0.00 83 1020.7
20260902224654 57 115 0.0 0.0 0.00 0.00 0.00 82 1020.7
20260902223022 57 115 0.0 0.0 0.00 0.00 0.00 81 1020.6
20260902221533 58 115 0.0 0.0 0.00 0.00 0.00 79 1020.6
20260902220054 59 115 0.0 0.0 0.00 0.00 0.00 78 1020.4
20260902214520 59 115 0.0 0.0 0.00 0.00 0.00 77 1020.3
20260902213025 60 115 0.0 0.0 0.00 0.00 0.00 75 1020.2
20260902211549 61 115 0.0 0.0 0.00 0.00 0.00 73 1020.0
20260902210057 61 115 0.0 0.0 0.00 0.00 0.00 72 1020.0
20260902204516 62 115 0.0 0.0 0.00 0.00 0.00 71 1019.9
20260902203042 62 115 0.0 0.0 0.00 0.00 0.00 70 1019.9
20260902201611 62 115 0.0 0.0 0.00 0.00 0.00 69 1019.8
20260902200013 63 115 0.0 0.0 0.00 0.00 0.00 66 1019.7
20260902194537 65 115 0.0 0.0 0.00 0.00 0.00 63 1019.7
20260902193058 67 115 0.0 2.6 0.00 0.00 0.00 58 1019.7
20260902191528 69 115 0.0 2.6 0.00 0.00 0.00 51 1019.6
20260902190011 70 115 0.0 2.6 0.00 0.00 0.00 48 1019.4
20260902184540 70 115 0.0 1.7 0.00 0.00 0.00 48 1019.5
20260902183053 70 115 0.0 0.9 0.00 0.00 0.00 47 1019.2
20260902181510 70 115 0.0 2.6 0.00 0.00 0.00 47 1019.1
20260902180032 71 115 0.0 1.7 0.00 0.00 0.00 46 1018.8
20260902174551 71 115 0.0 2.6 0.00 0.00 0.00 45 1018.7
20260902173002 72 115 0.0 0.0 0.00 0.00 0.00 43 1018.6
20260902171544 73 115 0.0 4.3 0.00 0.00 0.00 42 1018.5
20260902170017 74 115 0.0 4.3 0.00 0.00 0.00 40 1018.4
20260902164553 74 115 0.0 4.3 0.00 0.00 0.00 40 1018.4
20260902163000 75 115 0.0 3.5 0.00 0.00 0.00 40 1018.4
20260902161526 76 115 0.9 3.5 0.00 0.00 0.00 39 1018.2
20260902160054 76 115 0.0 5.2 0.00 0.00 0.00 37 1018.2
20260902154515 77 115 0.9 6.1 0.00 0.00 0.00 37 1018.1
20260902153040 77 115 1.7 5.2 0.00 0.00 0.00 37 1018.1
20260902151552 78 115 0.9 4.3 0.00 0.00 0.00 40 1018.2
20260902150014 78 115 1.7 7.8 0.00 0.00 0.00 40 1018.1
20260902144520 80 115 0.0 7.0 0.00 0.00 0.00 41 1018.2
20260902143040 79 115 0.0 5.2 0.00 0.00 0.00 41 1018.2
20260902141603 80 115 0.0 4.3 0.00 0.00 0.00 42 1018.4
20260902140011 79 115 2.6 7.8 0.00 0.00 0.00 43 1018.6
20260902134534 78 115 0.0 5.2 0.00 0.00 0.00 46 1018.6
20260902133009 78 115 0.0 5.2 0.00 0.00 0.00 45 1018.6
20260902131531 76 115 0.0 6.1 0.00 0.00 0.00 47 1018.8
20260902130050 78 115 0.0 3.5 0.00 0.00 0.00 43 1018.9
20260902124502 76 115 0.0 6.1 0.00 0.00 0.00 48 1019.1
20260902123024 75 115 0.9 6.1 0.00 0.00 0.00 49 1019.3
20260902121603 75 115 0.0 7.0 0.00 0.00 0.00 50 1019.3
20260902120004 74 115 2.6 7.0 0.00 0.00 0.00 50 1019.3
20260902114534 73 115 0.9 6.1 0.00 0.00 0.00 51 1019.5
20260902113102 73 115 1.7 6.1 0.00 0.00 0.00 49 1019.5
20260902111509 75 115 0.0 0.9 0.00 0.00 0.00 47 1019.6
20260902110027 75 115 0.0 5.2 0.00 0.00 0.00 48 1019.7
20260902104600 73 115 0.0 5.2 0.00 0.00 0.00 50 1019.7
20260902103005 76 115 0.0 1.7 0.00 0.00 0.00 48 1019.8
20260902101533 72 115 0.0 0.9 0.00 0.00 0.00 53 1019.9
20260902100044 73 115 0.0 0.0 0.00 0.00 0.00 53 1020.1
20260902094602 73 115 0.0 0.0 0.00 0.00 0.00 54 1019.9
20260902093025 72 115 0.0 3.5 0.00 0.00 0.00 56 1020.2
20260902091519 72 115 0.0 0.9 0.00 0.00 0.00 59 1020.3
20260902090035 71 115 0.0 0.0 0.00 0.00 0.00 62 1020.3
20260902084601 70 115 0.0 3.5 0.00 0.00 0.00 61 1020.2
20260902083019 69 115 0.0 3.5 0.00 0.00 0.00 62 1020.4
20260902081643 68 115 0.0 0.9 0.00 0.00 0.00 63 1020.4
20260902080014 67 115 0.0 0.0 0.00 0.00 0.00 67 1020.5
20260902074537 66 115 0.0 0.0 0.00 0.00 0.00 69 1020.6
20260902073002 66 115 0.0 0.0 0.00 0.00 0.00 71 1020.5
20260902071519 64 115 0.0 0.0 0.00 0.00 0.00 74 1020.5
20260902070032 61 115 0.0 0.0 0.00 0.00 0.00 80 1020.5
20260902064503 59 115 0.0 0.0 0.00 0.00 0.00 84 1020.5
20260902063021 57 115 0.0 0.0 0.00 0.00 0.00 90 1020.6
20260902061545 54 115 0.0 0.0 0.00 0.00 0.00 97 1020.7
20260902060104 50 115 0.0 0.0 0.00 0.00 0.00 97 1020.6
20260902054536 48 115 0.0 0.0 0.00 0.00 0.00 97 1020.5
20260902053103 47 115 0.0 0.0 0.00 0.00 0.00 97 1020.5
20260902051504 46 115 0.0 0.0 0.00 0.00 0.00 96 1020.4
20260902050016 46 115 0.0 0.0 0.00 0.00 0.00 96 1020.4
20260902044548 46 115 0.0 0.0 0.00 0.00 0.00 96 1020.3
20260902043120 46 115 0.0 0.0 0.00 0.00 0.00 96 1020.2